Regional Weather Roundup
Issued by NWS

Home | Current Version | Previous Version | Graphics & Text | Print | Product List | Glossary On
Versions: 1 2 3 4 5 6 7 8 9 10 11 12 13 14 15 16 17 18 19 20 21 22 23 24 25 26 27
000
ASUS45 KCYS 160610
RWRWY

WYOMING REGIONAL WEATHER ROUNDUP
NATIONAL WEATHER SERVICE CHEYENNE WY
1200 AM MDT WED AUG 16 2017

NOTE:  "FAIR" INDICATES FEW OR NO CLOUDS BELOW 12,000 FEET
WITH NO SIGNIFICANT WEATHER AND/OR OBSTRUCTIONS TO VISIBILITY.

WYZ001-160700-
YELLOWSTONE NATIONAL PARK

CITY           SKY/WX    TMP DP  RH WIND       PRES   REMARKS
LK YELLOWSTONE   N/A     39  37  92 NW3       30.22R
6HR MIN TEMP:  39; 6HR MAX TEMP:  60;

W YELLOWSTONE  NOT AVBL

$$
WYZ002>013-054>058-071-098>099-160700-
NORTHERN WYOMING

CITY           SKY/WX    TMP DP  RH WIND       PRES   REMARKS
JACKSON        FAIR      49  38  65 N3        30.14R
CODY           FAIR      59  45  59 SW9       30.04S
GREYBULL       FAIR      60  52  74 E3        29.97S
6HR MIN TEMP:  60; 6HR MAX TEMP:  77;

WORLAND        FAIR      54  51  90 SE9       29.98S
6HR MIN TEMP:  54; 6HR MAX TEMP:  74;

SHERIDAN       FAIR      51  46  83 CALM      29.98R
6HR MIN TEMP:  50; 6HR MAX TEMP:  74;

BUFFALO        FAIR      53  41  63 W8        30.04R
6HR MIN TEMP:  53; 6HR MAX TEMP:  69;

GILLETTE       FAIR      50  46  86 W6        30.01R
6HR MIN TEMP:  48; 6HR MAX TEMP:  69;

HULETT         FAIR      54  52  94 S5        30.02R
NEWCASTLE      FAIR      55  46  71 NW6       30.00R

$$
WYZ014>020-022>026-101>103-160700-
CENTRAL WYOMING

CITY           SKY/WX    TMP DP  RH WIND       PRES   REMARKS
BIG PINEY      FAIR      46  41  82 CALM      30.17S
6HR MIN TEMP:  46; 6HR MAX TEMP:  71;

PINEDALE       FAIR      45  39  81 NW6       30.19S
DUBOIS         FAIR      45  39  81 NW8       30.17S
LANDER           N/A    N/A N/A N/A MISG      30.07R
RIVERTON       FAIR      55  45  68 NW10      30.07R
6HR MIN TEMP:  55; 6HR MAX TEMP:  68;

CASPER         FAIR      51  48  89 CALM      30.09R
6HR MIN TEMP:  51; 6HR MAX TEMP:  62;

DOUGLAS        FAIR      55  53  93 N6        30.05R
6HR MIN TEMP:  54; 6HR MAX TEMP:  61; 6HR PCP:  0.22;


$$
WYZ021-027>030-104>119-160700-
SOUTHERN WYOMING

CITY           SKY/WX    TMP DP  RH WIND       PRES   REMARKS
EVANSTON       FAIR      54  32  43 E8        30.18R
6HR MIN TEMP:  51; 6HR MAX TEMP:  72;

KEMMERER         N/A     52  41  66 E5        30.19R
FORT BRIDGER   FAIR      52  46  78 SE7       30.20R
ROCK SPRINGS   FAIR      53  46  77 S5        30.15S
6HR MIN TEMP:  52; 6HR MAX TEMP:  66; 6HR PCP: TRACE;

RAWLINS        MOCLDY    52  45  77 SW3       30.15R
6HR MIN TEMP:  49; 6HR MAX TEMP:  57;

SARATOGA       CLOUDY    50  50 100 N5        30.18R
LARAMIE        FAIR      48  42  80 NW7       30.13F
6HR MIN TEMP:  48; 6HR MAX TEMP:  55; 6HR PCP: TRACE;

CHEYENNE       FAIR      54  46  74 W9        30.07F
6HR MIN TEMP:  54; 6HR MAX TEMP:  64; 6HR PCP:  0.08;

TORRINGTON     MOCLDY    59  56  89 NW3       29.99R
6HR MIN TEMP:  58; 6HR MAX TEMP:  64;

PINE BLUFFS    FAIR      57  50  77 NW10      30.01S

$$




USA.gov is the U.S. government's official web portal to all federal, state and local government web resources and services.